User: anonymous   Login
Location: Invercargill
(46.4000°S, 168.3500°E)
Time: 23:09:56
(UTC+13:00)
Language:

Cosmos 2322 - Orbit

View from above orbital plane
View from above orbital plane
View from above satellite
View from above satellite

Ground track
Ground track

The orbit data is extracted from the following two-line orbital elements,

1 23704U 95058A   19080.58083468 -.00000352 +00000-0 -16165-3 0  9997
2 23704 070.9836 137.3185 0011170 215.7665 144.2710 14.13404733206604
Epoch (UTC): 21 March 2019 13:56:24
Eccentricity: 0.0011170
inclination: 70.9836°
perigee height: 839 km
apogee height: 856 km
right ascension of ascending node: 137.3185°
argument of perigee: 215.7665°
revolutions per day: 14.13404733
mean anomaly at epoch: 144.2710°
orbit number at epoch: 20660

The dashed part of the orbit path shows where the satellite is in the earth's shadow,  

DLR